This is the latest recevied weather packets stored in our database for station/object VE3TEJ. If no packets are shown the sender has not sent any weather packets the latest 10 day(s).
| Time | Temp. | Humidity | Pressure | Rain* | Wind** | Luminosity | Snow |
|---|---|---|---|---|---|---|---|
| 1787925756 | 18.33° C | 68% | 1026.2 hPa | 0 mm | - | - | - |
| 1787925456 | 18.89° C | 68% | 1026.2 hPa | 0 mm | - | - | - |
| 1787925156 | 18.89° C | 70% | 1026.2 hPa | 0 mm | - | - | - |
| 1787924856 | 18.33° C | 70% | 1026.2 hPa | 0 mm | - | - | - |
| 1787924555 | 18.33° C | 74% | 1026.1 hPa | 0 mm | - | - | - |
| 1787924255 | 17.78° C | 73% | 1026.2 hPa | 0 mm | - | - | - |
| 1787923957 | 17.78° C | 76% | 1026.2 hPa | 0 mm | - | - | - |
| 1787923656 | 17.22° C | 76% | 1026.1 hPa | 0 mm | - | - | - |
| 1787923356 | 17.22° C | 78% | 1026 hPa | 0 mm | - | - | - |
| 1787923056 | 17.22° C | 78% | 1026.2 hPa | 0 mm | - | - | - |
| 1787922756 | 17.22° C | 80% | 1026.3 hPa | 0 mm | - | - | - |
| 1787922455 | 16.67° C | 80% | 1026.1 hPa | 0 mm | - | - | - |
| 1787922155 | 16.67° C | 81% | 1026 hPa | 0 mm | - | - | - |
| 1787921857 | 16.67° C | 81% | 1026 hPa | 0 mm | - | - | - |
| 1787921556 | 16.11° C | 83% | 1026 hPa | 0 mm | - | - | - |
| 1787921256 | 16.11° C | 87% | 1025.9 hPa | 0 mm | - | - | - |
| 1787920956 | 15.56° C | 91% | 1025.9 hPa | 0 mm | - | - | - |
| 1787920655 | 15° C | 93% | 1025.9 hPa | 0 mm | - | - | - |
| 1787920355 | 15° C | 94% | 1025.9 hPa | 0 mm | - | - | - |
| 1787920056 | 14.44° C | 94% | 1025.8 hPa | 0 mm | - | - | - |
| 1787919756 | 14.44° C | 94% | 1025.8 hPa | 0 mm | - | - | - |
| 1787919455 | 13.89° C | 95% | 1025.6 hPa | 0 mm | - | - | - |
| 1787919155 | 13.89° C | 95% | 1025.8 hPa | 0 mm | - | - | - |
| 1787918857 | 13.89° C | 95% | 1025.6 hPa | 0 mm | - | - | - |
| 1787918557 | 13.33° C | 95% | 1025.6 hPa | 0 mm | - | - | - |
* Rain latest hour (hover to see other rain measurements)
** Current wind speed in m/s (hover to see current wind gust speed)